AirNav   Air Wisconsin pilot careers
 
 455 users online  

4MA0 Burke Heliport
Sherborn, Massachusetts, USA

GOING TO SHERBORN?


FAA INFORMATION EFFECTIVE 12 OCTOBER 2017

Location

FAA Identifier: 4MA0
Lat/Long: 42-14-02.3490N / 071-21-35.2110W
42-14.039150N / 071-21.586850W
42.2339858 / -71.3597808
(estimated)
Elevation: 240 ft. / 73 m (estimated)
Variation: 15W (1985)
From city: 1 mile S of SHERBORN, MA
Time zone: UTC -4 (UTC -5 during Standard Time)
Zip code: 01770

Heliport Operations

Heliport use: Private use, PERSONAL USE.
Activation date: 02/1987
Control tower: no
ARTCC: BOSTON CENTER
FSS: BRIDGEPORT FLIGHT SERVICE STATION
Attendance: UNATNDD
Segmented circle: no

Heliport Communications

WX ASOS at OWD (9 nm E): PHONE 781-762-4314
WX ASOS at BED (15 nm N): PHONE 781-274-9733
WX ASOS at BOS (17 nm NE): PHONE 617-567-5762
WX AWOS-3PT at SFZ (20 nm S): 120.025 (401-334-0324)

Nearby radio navigation aids

VOR radial/distance  VOR name  Freq  Var
BOSr262/18.0BOSTON VOR/DME112.7016W
PUTr066/27.3PUTNAM VOR/DME117.4014W
PVDr020/30.7PROVIDENCE VOR/DME115.6014W
LWMr216/32.6LAWRENCE VOR/DME112.5015W
GDMr135/36.2GARDNER VOR/DME110.6014W
MHTr194/38.1MANCHESTER VOR/DME114.4015W

 
NDB name  Hdg/Dist  Freq  Var  ID
STOGE319/12.439715WOW --- .--
BEDDS191/14.833216WBE -... .
SHAKER HILL227/15.525116WSKR ... -.- .-.
FITCHBURG152/25.936515WFIT ..-. .. -
TAUNTON341/26.422716WTAN - .- -.
MARSHFIELD301/31.536816WIMR .. -- .-.

Heliport Services

Runway Information

Helipad H1

Dimensions: 100 x 100 ft. / 30 x 30 m
Surface: turf
Traffic pattern: leftleft

Heliport Ownership and Management from official FAA records

Ownership: Privately-owned
Owner: JOHN P. BURKE
9 PECKHAM HILL ROAD
SHERBORN, MA 01770
Phone 617-655-1511

Heliport Operational Statistics

Aircraft based on the field: 1
Helicopters: 1
    

Instrument Procedures

There are no published instrument procedures at 4MA0.

Some nearby airports with instrument procedures:

KOWD - Norwood Memorial Airport (9 nm E)
1B6 - Hopedale Industrial Park Airport (10 nm SW)
KBED - Laurence G Hanscom Field Airport (15 nm N)
6B6 - Minute Man Air Field (15 nm NW)
1B9 - Mansfield Municipal Airport (16 nm SE)
KBOS - General Edward Lawrence Logan International Airport (17 nm NE)
KSFZ - North Central State Airport (20 nm S)
 
Loc | Ops | Rwys | IFR | FBO | Links
Com | Nav | Svcs | Stats | Notes


 
Area around 4MA0 (Burke Heliport)
 
Road maps at: MapQuest Bing Google
 
Aerial photo
No photo
 
Sectional chart

 
Airport distance calculator
Flying to Burke Heliport? Find the distance to fly.

From to 4MA0

Sunrise and sunset
Times for 21-Oct-2017
 Local
(UTC-4)
 Zulu
(UTC)
Morning civil twilight06:3810:38
Sunrise07:0611:06
Sunset17:5421:54
Evening civil twilight18:2322:23

Current date and time
Zulu (UTC)  21-Oct-2017 11:13:30
Local (UTC-4)  21-Oct-2017 07:13:30
 
METAR
KOWD 
9nm E 
211053Z 00000KT 10SM CLR 03/02 A3025 RMK AO2 SLP243 T00330017
KMQE 
11nm E 
211056Z AUTO 30007KT 13/01 A3024 RMK AO1 SLP250 T01280006
KBED 
14nm N 
211056Z AUTO 00000KT 10SM CLR 04/02 A3023 RMK AO2 SLP252 T00390017
KBOS 
17nm NE 
211054Z 22003KT 10SM CLR 13/03 A3024 RMK AO2 SLP240 T01330028
TAF
KBED 
14nm N 
210532Z 2106/2206 00000KT P6SM SKC FM211500 25005KT P6SM SKC FM212200 00000KT P6SM FEW250
KBOS 
17nm NE 
210835Z 2109/2212 29005KT P6SM SKC FM211400 27007KT P6SM SKC FM211900 25005KT P6SM FEW250
NOTAMs
Click for the latest NOTAMs
NOTAMs are issued by the DoD/FAA and will open in a separate window not controlled by AirNav.

 

 
 

Would you like to see your business listed on this page?

 If your business provides an interesting product or service to pilots, flight crews, aircraft, or users of the Burke Heliport, you should consider listing it here.  To start the listing process, click on the button below
 
Add a business
 

Other Pages about Burke Heliport

Update a link
 
Copyright © AirNav, LLC. All rights reserved. Privacy Policy  Contact